Content
SEND FEEDBACK

Daily
Averages
Monthly
Summary
United States of America

ATWOOD, COLORADO


Home > North America > United States > Colorado
Elevation: 1362 meters     Latitude: 40 29N     Longitude: 103 01W

WEATHER
 
SELECT A DAY
Number of Records: 216,921;   Date Range: 1/1/95 - 9/22/14
 
SHARE

PRINT THIS DATA

[ ← Previous Day ]
WEATHER ALMANAC - 31 JANUARY, 2013
[ Next Day → ]
[ °F ]   °C
Weather ElementAverageHighLow
Temperature-2.8 °C0 °C (3:53 pm)-6.1 °C (10:53 pm)
Dewpoint-7.6 °C-6.1 °C (2:53 am)-9.4 °C (8:53 pm)
Humidity70.3 %81 % (2:53 am)59 % (3:53 pm)
Barometer1021.3 hPa1025.4 hPa (7:53 pm)1014.2 hPa (1:53 am)
Wind Speed12.7 km/h27.8 km/h (2:53 am)
Weather ElementAverage
Visibility15.3 km
Wind DirectionSW (230.3 °)

Weather ElementTotal
Precipitation---
Heating Degree Days21.4 (Base 18.3)
Averaged from 29 records on 31 January, 2013
WEATHER CONDITIONS BREAKOUT
WIND DIRECTION BREAKOUT
WEATHER BY HOUR - 31 JANUARY, 2013
[ °F ]   °C
Local TimeTemperatureDewpointHumidityBarometerVisibilityWind DirectionWind SpeedGust SpeedPrecipitationEventsConditions
1:53 AM-0.6 °C-7.2 °C61 %1014.2 hPa16.1 kmWest (260°)16.7 km/hOvercast
2:53 AM-3.3 °C-6.1 °C81 %1015.6 hPa16.1 kmNNE (20°)27.8 km/hOvercast
3:53 AM-3.3 °C-6.7 °C78 %1016.9 hPa16.1 kmNorth (360°)14.8 km/hOvercast
4:53 AM-3.9 °C-7.2 °C78 %1017.3 hPa16.1 kmNorth (350°)11.1 km/hOvercast
5:53 AM-4.4 °C-7.8 °C77 %1018.6 hPa16.1 kmNNW (330°)11.1 km/hOvercast
6:53 AM-4.4 °C-7.8 °C77 %1019.6 hPa16.1 kmNNW (330°)11.1 km/hOvercast
7:53 AM-3.9 °C-7.8 °C75 %1020.7 hPa16.1 kmNorth (350°)9.3 km/h0 mmOvercast
8:53 AM-3.9 °C-7.2 °C78 %1022.4 hPa2.9 kmWNW (300°)11.1 km/h0 mmSnowLight Snow
9:02 AM-4 °C-7 °C80 %1019 hPa4.8 kmNW (320°)14.8 km/h0 mmSnowLight Snow
9:53 AM-2.8 °C-7.2 °C72 %1023 hPa16.1 kmNorth (10°)22.2 km/h0 mmOvercast
10:53 AM-1.7 °C-7.2 °C67 %1023.7 hPa16.1 kmNorth (360°)22.2 km/hScattered Clouds
11:36 AM-2 °C-7 °C69 %1020.3 hPa16.1 kmNNW (330°)14.8 km/hMostly Cloudy
11:53 AM-1.1 °C-6.7 °C66 %1023.4 hPa16.1 kmNNW (330°)20.4 km/hOvercast
12:15 PM-1 °C-7 °C64 %1020 hPa16.1 kmNNW (340°)18.5 km/hMostly Cloudy
12:53 PM-1.1 °C-7.2 °C64 %1023 hPa16.1 kmNorth (360°)14.8 km/hScattered Clouds
1:12 PM-1 °C-7 °C64 %1020 hPa16.1 kmNNW (330°)7.4 km/hMostly Cloudy
1:35 PM-1 °C-7 °C64 %1020 hPa16.1 kmWNW (290°)5.6 km/hScattered Clouds
1:53 PM-1.1 °C-7.2 °C64 %1022.4 hPa16.1 kmWNW (290°)7.4 km/hMostly Cloudy
2:18 PM-1 °C-8 °C60 %1019.3 hPa16.1 kmNNW (330°)5.6 km/hScattered Clouds
2:53 PM-0.6 °C-7.2 °C61 %1022.4 hPa16.1 kmCalmClear
3:53 PM0 °C-7.2 °C59 %1022 hPa16.1 kmCalmClear
4:53 PM-1.1 °C-7.2 °C64 %1022.7 hPa16.1 kmCalmClear
5:53 PM-2.8 °C-7.8 °C69 %1023.4 hPa16.1 kmSE (130°)11.1 km/hClear
6:53 PM-4.4 °C-8.9 °C71 %1024.7 hPa16.1 kmSE (130°)13 km/hClear
7:53 PM-5 °C-8.9 °C74 %1025.4 hPa16.1 kmSE (140°)16.7 km/hClear
8:53 PM-5.6 °C-9.4 °C75 %1025.4 hPa16.1 kmSE (130°)14.8 km/hClear
9:53 PM-5.6 °C-8.9 °C78 %1025.1 hPa16.1 kmSSE (150°)14.8 km/hPartly Cloudy
10:53 PM-6.1 °C-9.4 °C78 %1024.4 hPa16.1 kmSSW (200°)14.8 km/hClear
11:53 PM-3.9 °C-8.3 °C72 %1023 hPa16.1 kmSSW (210°)14.8 km/hClear
Hourly data recorded from KSTK, located 0 kilometers away from Atwood, Colorado







STORIES FROM OUR PARTNERS